{"data":{"norad_id":68947,"epoch":"2026-05-24T12:18:05.497632Z","epoch_age_seconds":110326,"freshness":"FRESH","line1":"1 68947U 26098AE  26144.51256363  .00105556  00000+0  29026-2 0  9999","line2":"2 68947  51.8736 181.5901 0007098  69.3476 290.8271 15.36327028  3717","mean_motion":15.36327028,"eccentricity":0.0007098,"inclination_deg":51.8736,"raan_deg":181.5901,"arg_perigee_deg":69.3476,"mean_anomaly_deg":290.8271,"bstar":0.0029026,"rev_number":371,"period_min":93.730044043722,"perigee_km":452.13012721836,"apogee_km":461.83326171703,"semimajor_km":6835.1186944677,"source":"CELESTRAK","updated_at":"2026-05-25T13:38:08.798625Z"}}